Sanford, NC

8:06 AM EDT on August 18, 2017 (GMT -0400)
Raleigh Executive Jetport

Weather History for KTTA - October, 2012

Change the Weather History Date:

Sunday, October 14, 2012

  Actual Average (KHRJ) Record (KHRJ)
Temperature  
Mean Temperature 57 °F -  
Max Temperature 77 °F 76 °F 87 °F (1970)
Min Temperature 37 °F 49 °F 29 °F (1988)
Degree Days  
Heating Degree Days 8    
Growing Degree Days 7 (Base 50)    
Moisture  
Dew Point 50 °F    
Average Humidity 82    
Maximum Humidity 100    
Minimum Humidity 44    
Precipitation  
Precipitation 0.00 in - - ()
Sea Level Pressure  
Sea Level Pressure 30.21 in    
Wind  
Wind Speed 1 mph (South)    
Max Wind Speed 7 mph    
Max Gust Speed -    
Visibility 9 miles    
Events Fog    
Averages and records for this station are not official NWS values.
T = Trace of Precipitation, MM = Missing Value Source: NWS Daily Summary

Daily Weather History Graph

Daily Weather History Graph

Search for Another Location

Airport or City:

Trip Planner

Search our weather history database for the weather conditions in past years. The results will help you decide how hot, cold, wet, or windy it might be!

Date:

Astronomy

Oct. 14, 2012 Rise Set
Actual Time 7:22 AM EDT 6:41 PM EDT
Civil Twilight 6:56 AM EDT 7:07 PM EDT
Nautical Twilight 6:27 AM EDT 7:36 PM EDT
Astronomical Twilight 5:57 AM EDT 8:06 PM EDT
Moon 6:20 AM EDT (10/14) 6:00 PM EDT (10/14)
Length of Visible Light 12h 10m
Length of Day
11h 19m
Waning Crescent, 1% of the Moon is Illuminated
Oct 14
Waning Crescent
Oct 15
New
Oct 21
First Quarter
Oct 29
Full
Nov 6
Last Quarter

Hourly Weather History & Observations

Time (EDT) Temp. Dew Point Humidity Pressure Visibility Wind Dir Wind Speed Gust Speed Precip Events Conditions
12:15 AM 42.8 °F 42.8 °F 100% 30.34 in 10.0 mi Calm Calm - N/A   Clear
12:35 AM 42.8 °F 42.8 °F 100% 30.34 in 10.0 mi Calm Calm - N/A   Clear
1:35 AM 42.8 °F 41.0 °F 93% 30.33 in 10.0 mi Calm Calm - N/A   Clear
1:55 AM 42.8 °F 41.0 °F 93% 30.32 in 7.0 mi Calm Calm - N/A   Clear
2:15 AM 41.0 °F 41.0 °F 100% 30.32 in 10.0 mi Calm Calm - N/A   Clear
2:35 AM 41.0 °F 41.0 °F 100% 30.31 in 10.0 mi Calm Calm - N/A   Clear
3:15 AM 41.0 °F 39.2 °F 93% 30.30 in 10.0 mi Calm Calm - N/A   Clear
3:35 AM 41.0 °F 39.2 °F 93% 30.29 in 10.0 mi Calm Calm - N/A   Clear
3:55 AM 41.0 °F 39.2 °F 93% 30.29 in 10.0 mi Calm Calm - N/A   Clear
4:15 AM 41.0 °F 39.2 °F 93% 30.29 in 10.0 mi Calm Calm - N/A   Clear
4:35 AM 41.0 °F 39.2 °F 93% 30.29 in 7.0 mi Calm Calm - N/A   Clear
4:55 AM 39.2 °F 37.4 °F 93% 30.28 in 7.0 mi Calm Calm - N/A   Clear
5:15 AM 39.2 °F 37.4 °F 93% 30.28 in 10.0 mi Calm Calm - N/A   Clear
5:35 AM 37.4 °F 37.4 °F 100% 30.28 in 10.0 mi Calm Calm - N/A   Mostly Cloudy
5:55 AM 37.4 °F 37.4 °F 100% 30.27 in 7.0 mi Calm Calm - N/A   Overcast
6:15 AM 39.2 °F 37.4 °F 93% 30.27 in 7.0 mi Calm Calm - N/A   Scattered Clouds
6:35 AM 37.4 °F 37.4 °F 100% 30.27 in 10.0 mi Calm Calm - N/A   Clear
6:55 AM 37.4 °F 37.4 °F 100% 30.28 in 7.0 mi Calm Calm - N/A   Scattered Clouds
7:15 AM 39.2 °F 37.4 °F 93% 30.28 in 7.0 mi Calm Calm - N/A   Overcast
7:35 AM 39.2 °F 39.2 °F 100% 30.28 in 5.0 mi Calm Calm - N/A   Overcast
7:55 AM 39.2 °F 39.2 °F 100% 30.28 in 5.0 mi Calm Calm - N/A   Mostly Cloudy
8:15 AM 41.0 °F 41.0 °F 100% 30.29 in 0.5 mi Calm Calm - N/A Fog Fog
8:35 AM 42.8 °F 42.8 °F 100% 30.30 in 7.0 mi Calm Calm - N/A   Scattered Clouds
8:55 AM 44.6 °F 44.6 °F 100% 30.30 in 10.0 mi Calm Calm - N/A   Clear
9:15 AM 48.2 °F 46.4 °F 93% 30.30 in 10.0 mi Calm Calm - N/A   Scattered Clouds
9:35 AM 50.0 °F 50.0 °F 100% 30.30 in 10.0 mi Calm Calm - N/A   Mostly Cloudy
9:55 AM 53.6 °F 50.0 °F 88% 30.30 in 10.0 mi Calm Calm - N/A   Scattered Clouds
10:15 AM 55.4 °F 51.8 °F 88% 30.29 in 10.0 mi Calm Calm - N/A   Clear
10:35 AM 59.0 °F 51.8 °F 77% 30.28 in 10.0 mi Calm Calm - N/A   Clear
10:55 AM 62.6 °F 50.0 °F 63% 30.27 in 10.0 mi Calm Calm - N/A   Clear
11:15 AM 64.4 °F 51.8 °F 64% 30.27 in 10.0 mi Calm Calm - N/A   Clear
11:35 AM 66.2 °F 53.6 °F 64% 30.26 in 10.0 mi Calm Calm - N/A   Clear
11:55 AM 68.0 °F 55.4 °F 64% 30.26 in 10.0 mi Calm Calm - N/A   Clear
12:15 PM 69.8 °F 55.4 °F 60% 30.25 in 10.0 mi Calm Calm - N/A   Clear
12:35 PM 71.6 °F 57.2 °F 60% 30.24 in 7.0 mi Calm Calm - N/A   Clear
12:55 PM 71.6 °F 57.2 °F 60% 30.23 in 10.0 mi South 3.5 mph - N/A   Clear
1:15 PM 73.4 °F 57.2 °F 57% 30.22 in 10.0 mi South 4.6 mph - N/A   Clear
1:35 PM 75.2 °F 55.4 °F 50% 30.20 in 10.0 mi WSW 5.8 mph - N/A   Clear
1:55 PM 75.2 °F 55.4 °F 50% 30.19 in 10.0 mi South 6.9 mph - N/A   Mostly Cloudy
2:15 PM 75.2 °F 55.4 °F 50% 30.18 in 10.0 mi South 5.8 mph - N/A   Overcast
2:35 PM 73.4 °F 55.4 °F 53% 30.18 in 10.0 mi SSW 3.5 mph - N/A   Overcast
2:55 PM 75.2 °F 55.4 °F 50% 30.17 in 10.0 mi SSW 3.5 mph - N/A   Overcast
3:15 PM 77.0 °F 55.4 °F 47% 30.16 in 10.0 mi SSW 6.9 mph - N/A   Overcast
3:35 PM 77.0 °F 53.6 °F 44% 30.15 in 10.0 mi SSW 5.8 mph - N/A   Overcast
4:15 PM 75.2 °F 55.4 °F 50% 30.13 in 10.0 mi South 5.8 mph - N/A   Mostly Cloudy
4:35 PM 73.4 °F 55.4 °F 53% 30.13 in 10.0 mi SSW 3.5 mph - N/A   Overcast
5:15 PM 71.6 °F 59.0 °F 64% 30.12 in 10.0 mi Calm Calm - N/A   Overcast
5:35 PM 73.4 °F 57.2 °F 57% 30.11 in 10.0 mi Calm Calm - N/A   Mostly Cloudy
5:55 PM 71.6 °F 59.0 °F 64% 30.11 in 10.0 mi SSE 3.5 mph - N/A   Scattered Clouds
6:15 PM 69.8 °F 59.0 °F 68% 30.10 in 10.0 mi SSE 3.5 mph - N/A   Mostly Cloudy
6:35 PM 69.8 °F 59.0 °F 68% 30.10 in 10.0 mi Calm Calm - N/A   Scattered Clouds
6:55 PM 66.2 °F 60.8 °F 83% 30.10 in 10.0 mi Calm Calm - N/A   Scattered Clouds
7:15 PM 64.4 °F 60.8 °F 88% 30.10 in 10.0 mi Calm Calm - N/A   Scattered Clouds
7:35 PM 62.6 °F 59.0 °F 88% 30.10 in 10.0 mi Calm Calm - N/A   Clear
7:55 PM 62.6 °F 59.0 °F 88% 30.09 in 10.0 mi Calm Calm - N/A   Mostly Cloudy
8:15 PM 60.8 °F 59.0 °F 94% 30.09 in 10.0 mi Calm Calm - N/A   Scattered Clouds
8:35 PM 60.8 °F 59.0 °F 94% 30.08 in 10.0 mi Calm Calm - N/A   Clear
8:55 PM 60.8 °F 59.0 °F 94% 30.09 in 10.0 mi Calm Calm - N/A   Clear
9:15 PM 60.8 °F 59.0 °F 94% 30.09 in 10.0 mi Calm Calm - N/A   Scattered Clouds
9:35 PM 59.0 °F 55.4 °F 88% 30.08 in 10.0 mi Calm Calm - N/A   Scattered Clouds
9:55 PM 59.0 °F 57.2 °F 94% 30.07 in 10.0 mi Calm Calm - N/A   Mostly Cloudy
10:15 PM 59.0 °F 55.4 °F 88% 30.06 in 10.0 mi Calm Calm - N/A   Mostly Cloudy
10:35 PM 57.2 °F 55.4 °F 94% 30.05 in 10.0 mi Calm Calm - N/A   Clear
10:55 PM 59.0 °F 55.4 °F 88% 30.05 in 10.0 mi Calm Calm - N/A   Clear
11:15 PM 57.2 °F 55.4 °F 94% 30.04 in 10.0 mi Calm Calm - N/A   Clear
11:35 PM 60.8 °F 55.4 °F 82% 30.04 in 10.0 mi Calm Calm - N/A   Clear
11:55 PM 60.8 °F 57.2 °F 88% 30.03 in 10.0 mi South 3.5 mph - N/A   Clear